Location: Bouchavesnes-Bergen
(49.9859°N, 2.9203°E)
Time: 11:51:40
(UTC+00:00)

Cosmos 1606 - Pass Details

Date: 09 March 2021
Orbit: 501 x 528 km, 82.5° (Epoch: 13 April)

Event Time Altitude Azimuth Distance (km) Brightness Sun altitude
Exits shadow 04:48:28 27° 261° (W) 1,047 3.6 -14.6°
Maximum altitude 04:49:25 30° 288° (WNW) 967 3.6 -14.5°
Drops below altitude 10° 04:52:54 10° 351° (N) 1,782 5.4 -13.9°
Sets 04:55:15 0° 2° (N) 2,674 6.5 -13.6°
